Greenwood, MS

10:51 PM CST on December 03, 2016 (GMT -0600)
Greenwood-Leflore

Weather History for KGWO - February, 2013

Change the Weather History Date:

Tuesday, February 26, 2013

  Actual Average Record
Temperature  
Mean Temperature 48 °F 51 °F  
Max Temperature 54 °F 62 °F 81 °F (1962)
Min Temperature 42 °F 40 °F 22 °F (1974)
Degree Days  
Heating Degree Days 17 15  
Month to date heating degree days 467 464  
Since 1 July heating degree days 2034 2203  
Cooling Degree Days 0 0  
Month to date cooling degree days 0 0  
Year to date cooling degree days 12 2  
Moisture  
Dew Point 37 °F    
Average Humidity 80    
Maximum Humidity 100    
Minimum Humidity 60    
Precipitation  
Precipitation 0.00 in 0.16 in 2.01 in (1977)
Month to date precipitation 3.82 4.12  
Year to date precipitation 12.46 8.64  
Sea Level Pressure  
Sea Level Pressure 29.64 in    
Wind  
Wind Speed 12 mph (WSW)    
Max Wind Speed 24 mph    
Max Gust Speed 33 mph    
Visibility 10 miles    
Events      
T = Trace of Precipitation, MM = Missing Value Source: NWS Daily Summary

Daily Weather History Graph

Daily Weather History Graph

Search for Another Location

Airport or City:

Trip Planner

Search our weather history database for the weather conditions in past years. The results will help you decide how hot, cold, wet, or windy it might be!

Date:

Astronomy

Feb. 26, 2013 Rise Set
Actual Time 6:31 AM CST 5:54 PM CST
Civil Twilight 6:06 AM CST 6:19 PM CST
Nautical Twilight 5:38 AM CST 6:48 PM CST
Astronomical Twilight 5:09 AM CST 7:17 PM CST
Moon 7:04 PM CST (2/26) 6:39 AM CST (2/26)
Length of Visible Light 12h 12m
Length of Day
11h 22m
Full, 99% of the Moon is Illuminated
Feb 26
Full
Mar 4
Last Quarter
Mar 11
New
Mar 19
First Quarter
Mar 27
Full

Hourly Weather History & Observations

Time (CST) Temp. Windchill Dew Point Humidity Pressure Visibility Wind Dir Wind Speed Gust Speed Precip Events Conditions
12:53 AM 53.1 °F - 52.0 °F 96% 29.44 in 10.0 mi SW 8.1 mph - N/A   Scattered Clouds
1:38 AM 53.6 °F - 51.8 °F 94% 29.45 in 10.0 mi WSW 11.5 mph 20.7 mph N/A   Mostly Cloudy
1:53 AM 52.0 °F - 42.1 °F 69% 29.46 in 10.0 mi West 15.0 mph 24.2 mph N/A   Overcast
2:18 AM 51.8 °F - 41.0 °F 67% 29.48 in 10.0 mi WSW 16.1 mph 24.2 mph N/A   Overcast
2:25 AM 50.0 °F - 37.4 °F 62% 29.48 in 10.0 mi WSW 13.8 mph 24.2 mph N/A   Overcast
2:53 AM 48.0 °F - 36.0 °F 63% 29.50 in 10.0 mi SW 16.1 mph 23.0 mph N/A   Scattered Clouds
3:53 AM 46.0 °F 41.9 °F 35.1 °F 66% 29.50 in 10.0 mi SW 8.1 mph - N/A   Clear
4:53 AM 45.0 °F 39.7 °F 35.1 °F 68% 29.51 in 10.0 mi SW 10.4 mph 19.6 mph N/A   Clear
5:53 AM 44.1 °F 38.1 °F 36.0 °F 73% 29.52 in 10.0 mi SW 11.5 mph - N/A   Mostly Cloudy
6:53 AM 45.0 °F 38.2 °F 37.0 °F 74% 29.53 in 10.0 mi SW 15.0 mph 21.9 mph N/A   Overcast
7:53 AM 45.0 °F 38.5 °F 36.0 °F 71% 29.56 in 10.0 mi WSW 13.8 mph 24.2 mph N/A   Overcast
8:53 AM 45.0 °F 38.9 °F 36.0 °F 71% 29.60 in 10.0 mi WSW 12.7 mph 20.7 mph N/A   Overcast
9:53 AM 45.0 °F 37.6 °F 34.0 °F 65% 29.63 in 10.0 mi WSW 17.3 mph 31.1 mph N/A   Overcast
10:53 AM 45.0 °F 38.9 °F 34.0 °F 65% 29.64 in 10.0 mi WSW 12.7 mph 20.7 mph N/A   Overcast
11:53 AM 45.0 °F 37.9 °F 35.1 °F 68% 29.65 in 10.0 mi WSW 16.1 mph 26.5 mph N/A   Overcast
12:53 PM 45.0 °F 37.6 °F 34.0 °F 65% 29.67 in 10.0 mi WSW 17.3 mph 28.8 mph N/A   Overcast
1:53 PM 46.0 °F 39.3 °F 34.0 °F 63% 29.68 in 10.0 mi WSW 16.1 mph 27.6 mph N/A   Overcast
2:53 PM 46.0 °F 39.6 °F 34.0 °F 63% 29.70 in 10.0 mi WSW 15.0 mph 27.6 mph N/A   Overcast
3:53 PM 46.0 °F 40.6 °F 33.1 °F 61% 29.72 in 10.0 mi West 11.5 mph 26.5 mph N/A   Overcast
4:53 PM 45.0 °F 39.7 °F 34.0 °F 65% 29.75 in 10.0 mi WSW 10.4 mph 18.4 mph N/A   Overcast
5:53 PM 45.0 °F 39.3 °F 35.1 °F 68% 29.78 in 10.0 mi WSW 11.5 mph 19.6 mph N/A   Overcast
6:53 PM 45.0 °F 40.1 °F 35.1 °F 68% 29.81 in 10.0 mi WSW 9.2 mph - N/A   Overcast
7:53 PM 46.0 °F 42.5 °F 35.1 °F 66% 29.84 in 10.0 mi West 6.9 mph 18.4 mph N/A   Overcast
8:53 PM 45.0 °F 42.6 °F 36.0 °F 71% 29.85 in 10.0 mi West 4.6 mph - N/A   Overcast
9:53 PM 45.0 °F 40.6 °F 35.1 °F 68% 29.87 in 10.0 mi West 8.1 mph - N/A   Overcast
10:53 PM 45.0 °F 41.8 °F 36.0 °F 71% 29.89 in 10.0 mi West 5.8 mph - N/A   Mostly Cloudy
11:53 PM 43.0 °F 39.5 °F 33.1 °F 68% 29.90 in 10.0 mi Variable 5.8 mph - N/A   Clear